#timestamp,LO_Frequency,Hit 
1498230015.1,286047005.0,N
1498230035.8,286047004.8,N
1498230055.7,286047007.4,N
1498230075.5,286047007.1,N
1498230095.3,286047005.1,N
1498230115.2,286047004.6,N
1498230135.9,286047007.5,N
1498230155.7,286047007.4,N
1498230175.6,286047006.9,N
1498230195.4,286047006.5,N
1498230215.2,286047008.5,N
1498230235.0,286047008.8,N
1498230236.0,286047008.8,N
1498230255.8,286047006.6,N
1498230275.6,286047007.0,N
1498230295.4,286047004.5,N
1498230315.3,286047006.9,N
1498230335.1,286047006.4,N
1498230355.8,286047009.2,N
1498230375.7,286047008.9,N
1498230395.5,286047008.9,N
1498230415.3,286047008.2,N
1498230435.2,286047009.0,N
1498230455.9,286047009.0,N
1498230475.7,286047008.3,N
1498230495.6,286047007.8,N
1498230515.4,286047010.7,N
1498230535.2,286047010.7,N
1498230555.0,286047008.2,N
1498230555.9,286047008.2,N
1498230575.8,286047008.6,N
1498230595.6,286047006.6,N
1498230615.4,286047008.3,N
1498230635.3,286047007.7,N
1498230655.1,286047010.7,N
1498230656.0,286047010.7,N
1498230675.8,286047010.5,N
1498230695.7,286047009.7,N
1498230715.5,286047009.6,N
1498230735.3,286047010.4,N
1498230755.2,286047009.9,N
1498230775.9,286047007.7,N
1498230795.7,286047010.4,N
1498230815.6,286047010.3,N
1498230835.4,286047010.4,N
1498230855.2,286047010.7,N
1498230875.0,286047008.1,N
1498230875.9,286047008.1,N
1498230895.8,286047010.1,N
1498230915.6,286047010.6,N
1498230935.4,286047010.2,N
1498230955.3,286047010.6,N
1498230975.1,286047012.0,N
1498230976.0,286047012.0,N
1498230995.8,286047009.7,N
1498231015.7,286047009.5,N
1498231035.5,286047012.2,N
1498231055.3,286047011.8,N
1498231075.2,286047011.9,N
1498231095.9,286047009.9,N
1498231115.7,286047011.6,N
1498231135.6,286047011.1,N
1498231155.4,286047011.7,N
1498231175.2,286047011.8,N
1498231195.0,286047011.8,N
1498231195.9,286047011.8,N
1498231215.8,286047011.3,N
1498231235.6,286047011.0,N
1498231255.4,286047011.4,N
1498231275.3,286047011.1,N
1498231295.1,286047011.6,N
1498231296.0,286047011.6,N
1498231315.8,286047011.5,N
1498231335.7,286047013.5,N
1498231355.5,286047011.4,N
1498231375.3,286047011.4,N
1498231395.2,286047010.9,N
1498231415.9,286047014.0,N
1498231435.7,286047013.8,N
1498231455.5,286047010.9,N
1498231475.4,286047011.2,N
1498231495.2,286047011.7,N
1498231515.0,286047010.9,N
1498231515.9,286047010.9,N
1498231535.8,286047012.8,N
1498231555.6,286047011.3,N
1498231575.4,286047011.3,N
1498231595.3,286047013.5,N
1498231615.1,286047010.9,N
1498231635.8,286047013.4,N
1498231655.7,286047013.9,N
1498231675.5,286047013.7,N
1498231695.3,286047013.4,N
1498231715.2,286047013.8,N
1498231735.9,286047012.8,N
1498231755.7,286047015.4,N
1498231775.6,286047015.4,N
1498231795.4,286047012.9,N
1498231815.2,286047012.7,N
1498231835.0,286047015.2,N
1498231835.9,286047015.2,N
1498231855.8,286047012.9,N
1498231875.6,286047013.3,N
1498231895.4,286047013.5,N
1498231915.3,286047012.9,N
1498231935.1,286047012.6,N
1498231955.8,286047012.6,N
1498231975.7,286047013.0,N
1498231995.5,286047015.5,N
1498232015.3,286047013.9,N
1498232035.2,286047013.8,N
1498232055.9,286047012.7,N
1498232075.7,286047015.3,N
1498232095.6,286047015.0,N
1498232115.4,286047012.5,N
1498232135.2,286047016.7,N
1498232155.0,286047016.8,N
1498232155.9,286047016.8,N
1498232175.8,286047014.5,N
1498232195.6,286047016.9,N
1498232215.4,286047016.0,N
1498232235.3,286047016.4,N
1498232255.1,286047016.3,N
1498232275.8,286047016.5,N
1498232295.7,286047016.9,N
1498232315.5,286047016.0,N
1498232335.3,286047015.7,N
1498232355.2,286047018.4,N
1498232375.9,286047018.4,N
1498232395.7,286047018.4,N
1498232415.6,286047018.8,N
1498232435.4,286047018.3,N
1498232455.2,286047018.7,N
1498232475.0,286047018.0,N
1498232476.0,286047018.0,N
1498232495.0,286047018.3,N
1498232495.9,286047018.3,N
1498232515.7,286047018.8,N
1498232535.6,286047015.7,N
1498232555.4,286047018.1,N
1498232575.2,286047017.4,N
1498232595.1,286047016.3,N
1498232596.0,286047016.3,N
1498232615.8,286047017.9,N
1498232635.6,286047018.8,N
1498232655.5,286047018.5,N
1498232675.3,286047018.7,N
1498232695.1,286047018.7,N
1498232715.9,286047015.7,N
1498232735.7,286047018.4,N
1498232755.5,286047018.1,N
1498232775.3,286047017.7,N
1498232795.2,286047017.9,N
1498232815.0,286047018.5,N
1498232815.9,286047018.5,N
1498232835.7,286047018.7,N
1498232855.6,286047018.6,N
1498232875.4,286047015.7,N
1498232895.2,286047018.1,N
1498232915.1,286047016.6,N
1498232916.0,286047016.6,N
1498232935.8,286047018.8,N
1498232955.6,286047018.8,N
1498232975.5,286047018.2,N
1498232995.3,286047016.2,N
1498233015.1,286047016.2,N
1498233035.9,286047018.7,N
1498233055.7,286047018.7,N
1498233075.5,286047016.6,N
1498233095.4,286047014.5,N
1498233115.2,286047015.8,N
1498233135.0,286047015.8,N
1498233135.9,286047015.8,N
1498233155.8,286047015.8,N
1498233175.6,286047017.1,N
1498233195.4,286047014.1,N
1498233215.2,286047014.4,N
1498233235.1,286047017.0,N
1498233236.0,286047017.0,N
1498233255.8,286047016.7,N
1498233275.6,286047016.8,N
1498233295.5,286047016.5,N
1498233315.3,286047014.1,N
1498233335.1,286047017.1,N
1498233355.9,286047014.1,N
1498233375.7,286047017.2,N
1498233395.5,286047014.7,N
1498233415.4,286047014.3,N
1498233435.2,286047014.5,N
1498233455.0,286047014.5,N
1498233455.9,286047014.5,N
1498233475.8,286047014.3,N
1498233495.6,286047015.5,N
1498233515.4,286047014.4,N
1498233535.2,286047014.3,N
1498233555.1,286047015.1,N
1498233556.0,286047015.1,N
1498233575.8,286047014.1,N
1498233595.6,286047014.9,N
